Regional Weather Roundup
Issued by NWS

Home | Current Version | Previous Version | Graphics & Text | Print | Product List | Glossary On
Versions: 1 2 3 4 5 6 7 8 9 10 11 12 13 14 15 16 17 18 19 20 21 22 23 24 25 26 27 28 29 30 31 32 33 34 35 36 37 38 39 40 41 42 43 44 45 46 47 48 49 50
000
ASUS45 KTFX 032010
RWRMT
MONTANA REGIONAL WEATHER ROUNDUP
NATIONAL WEATHER SERVICE GREAT FALLS MT
200 PM MDT MON AUG 03 2015

NOTE: "FAIR" INDICATES FEW OR NO CLOUDS BELOW 12000 FEET WITH NO
SIGNIFICANT WEATHER AND/OR OBSTRUCTIONS TO VISIBILITY.

MTZ001>007-043-032100-
WEST OF THE DIVIDE

CITY           SKY/WX    TMP DP  RH WIND       PRES   REMARKS
KALISPELL      CLEAR     91  32  12 CALM      29.80F SMOKE
MISSOULA       MOSUNNY   85  37  18 CALM      29.83F
BUTTE          MOSUNNY   84  38  19 MISG      29.99F
MULLAN PASS    PTSUNNY   74  30  19 NW3       30.04S
DEER LODGE       N/A     90  43  19 CALM      29.94F
EUREKA           N/A     90  37  15 W6        29.78F
HAMILTON         N/A     81  41  24 NE5       29.85F
LIBBY            N/A     90  30  12 N5        29.77F
$$

MTZ008-052>055-032100-
SOUTHWEST MONTANA

CITY           SKY/WX    TMP DP  RH WIND       PRES   REMARKS
BOZEMAN        PTSUNNY   84  49  29 N3        29.95F
DILLON         CLOUDY    80  42  25 CALM      29.99F
W YELLOWSTONE  CLOUDY    72  45  37 SW8G17    30.16S
$$

MTZ009-010-012-014-046-048-049-054-032100-
EAST SLOPES AND CENTRAL MONTANA

CITY           SKY/WX    TMP DP  RH WIND       PRES   REMARKS
CUT BANK       SUNNY     87  45  23 SE9       29.89F
GREAT FALLS    MOSUNNY   90  46  21 NE10G17   29.88F
MALMSTROM AFB  SUNNY     90  46  22 NE8G15    29.87F
HELENA         MOSUNNY   90  47  22 VRB6      29.88F
CONRAD           N/A     89  52  28 E7        29.92
$$

MTZ011-013-016-021-045-047-050-051-032100-
NORTH CENTRAL MONTANA

CITY           SKY/WX    TMP DP  RH WIND       PRES   REMARKS
HAVRE          SUNNY     91  52  26 E15G25    29.84F
LEWISTOWN      SUNNY     90  47  22 E17G25    29.95F
CHINOOK          N/A     86  54  32 E16G24    29.87F
FORT BENTON      N/A     91  48  22 E14       29.84F
$$

MTZ017>020-022>027-061-062-032100-
NORTHEAST MONTANA

CITY           SKY/WX    TMP DP  RH WIND       PRES   REMARKS
GLASGOW        SUNNY     85  47  26 SE10      29.95F
JORDAN           N/A     90  45  21 SE13      29.94F
SIDNEY         SUNNY    N/A N/A N/A N7        29.98F
WOLF POINT     SUNNY     87  48  25 VRB6      29.97F
MALTA            N/A     88  51  27 NE8       29.90F
POPLAR           N/A     84  48  28 N7        29.98F
$$

MTZ028>42-056>058-032100-
SOUTHCENTRAL AND SOUTHEAST MONTANA

CITY           SKY/WX    TMP DP  RH WIND       PRES   REMARKS
BAKER          SUNNY     86  48  26 SE10      30.01F
BILLINGS       PTSUNNY   90  47  22 E14G24    29.94F
LIVINGSTON     PTSUNNY   83  44  25 E13       29.98F
MILES CITY     SUNNY     90  49  24 S12G17    29.94F
EKALAKA          N/A     85  47  26 E8        30.00F
FORSYTH          N/A     90  46  22 E13G20    29.92F
LAUREL           N/A     86  49  27 N5        29.94F
$$

REGIONAL REPORTS...DAKOTAS

CITY           SKY/WX    TMP DP  RH WIND       PRES   REMARKS
WILLISTON      SUNNY     82  43  25 CALM      30.00F
MINOT          SUNNY     77  41  27 CALM      29.99F
DICKINSON      SUNNY     80  49  33 CALM      30.00F
BISMARCK       SUNNY     80  49  33 NW8       30.00F
GRAND FORKS    MOSUNNY   76  49  38 NW15      29.92F
FARGO          SUNNY     80  48  32 NW13G25   29.93S
BUFFALO SD       N/A     85  52  32 VRB7      29.95F
$$

REGIONAL REPORTS...WYOMING/IDAHO/WASHINGTON

CITY           SKY/WX    TMP DP  RH WIND       PRES   REMARKS
GILLETTE       PTSUNNY   84  54  35 SE8       30.02F
SHERIDAN       PTSUNNY   89  52  28 E12       29.97F
BUFFALO WY     CLOUDY    82  52  35 S13       30.06S
CODY           CLOUDY    79  50  36 N8        30.03F
YELLOWSTONE LA   N/A     73  42  32 VRB3      30.23F
IDAHO FALLS    CLOUDY    74  53  48 SW18      30.04F
SALMON         MOSUNNY   84  41  21 N5        29.84F
BOISE          CLOUDY    85  48  27 NE7       29.92F
SPOKANE        CLOUDY    81  41  24 S12       29.83S
$$

REGIONAL REPORTS...ALBERTA

CITY           SKY/WX    TMP DP  RH WIND       PRES   REMARKS
EDMONTON       MOSUNNY   79  57  47 S18G28    29.81F
CALGARY        CLOUDY    84  52  32 S10G17    29.86F
LETHBRIDGE     MOSUNNY   86  52  30 E9        29.84F
MEDICINE HAT   CLOUDY    91  45  19 E12       29.83F
WATERTON GATE    N/A     86  52  30 NE8         N/A
MILK RIVER       N/A     90  46  22 S10G20      N/A
ONEFOUR          N/A     88  46  23 E16G24      N/A
$$

REGIONAL REPORTS...SASKATCHEWAN

CITY           SKY/WX    TMP DP  RH WIND       PRES   REMARKS
SWIFT CURRENT  MOSUNNY   79  54  41 S10       29.98F
REGINA         PTSUNNY   81  50  34 VRB7      30.01F
SASKATOON      PTSUNNY   79  46  31 VRB3      29.99F
CYPRESS HILLS    N/A     73  48  40 SE12G18     N/A
VAL MARIE        N/A     81  46  30 SE12G17     N/A
ROCKGLEN         N/A     77  50  38 SE3         N/A
ASSINIBOIA       N/A     82  54  36 SE17G26     N/A
$$


USA.gov is the U.S. government's official web portal to all federal, state and local government web resources and services.